Tracking 30923 objects as of 1-Jul-2025
HD Live streaming from Space Station
objects crossing your sky now

STARLINK-3333

Track STARLINK-3333 now!
10-day predictions
STARLINK-3333 is classified as:


NORAD ID: 50805
Int'l Code: 2022-001C
Perigee: 546.2 km
Apogee: 547.6 km
Inclination: 53.2 °
Period: 95.4 minutes
Semi major axis: 6917 km
RCS: Unknown
Launch date: January 6, 2022
Source: United States (US)
Launch site: AIR FORCE EASTERN TEST RANGE (AFETR)
Your satellite tracking list
LEMUR-2-NICHOL
Track 1 satellite(s)




NASA's NSSDC Master Catalog

Two Line Element Set (TLE):
1 50805U 22001C   25181.50929525 -.00000077  00000-0  13263-4 0  9991
2 50805  53.2160 211.2014 0001055  82.6924 277.4188 15.08836336192473
Source of the keplerian elements: AFSPC